| time (UTC) | temp C | wind direction | speed KPH | gust KPH | rain 1hr cm | rain 24hr cm | rain mn cm | humidity % | barometer mb |
| 20260503203704 | 26 | 294 | 4.8 | 16.1 | 0.00 | 0.00 | 0.00 | 44 | 1011.6 |
| 20260503203204 | 26 | 293 | 4.8 | 19.3 | 0.00 | 0.00 | 0.00 | 44 | 1011.7 |
| 20260503200704 | 26 | 346 | 6.4 | 14.5 | 0.00 | 0.00 | 0.00 | 47 | 1012.0 |
| 20260503200205 | 25 | 307 | 4.8 | 19.3 | 0.00 | 0.00 | 0.00 | 46 | 1012.0 |
| 20260503193704 | 25 | 324 | 6.4 | 12.9 | 0.00 | 0.00 | 0.00 | 47 | 1012.4 |
| 20260503190204 | 23 | 9 | 4.8 | 19.3 | 0.00 | 0.00 | 0.00 | 53 | 1012.9 |
| 20260503183705 | 23 | 20 | 4.8 | 12.9 | 0.00 | 0.00 | 0.00 | 56 | 1013.1 |
| 20260503183205 | 22 | 332 | 6.4 | 19.3 | 0.00 | 0.00 | 0.00 | 56 | 1013.2 |
| 20260503180705 | 21 | 318 | 4.8 | 12.9 | 0.00 | 0.00 | 0.00 | 58 | 1013.3 |
| 20260503173704 | 20 | 343 | 4.8 | 11.3 | 0.00 | 0.00 | 0.00 | 60 | 1013.4 |
| 20260503173204 | 20 | 320 | 3.2 | 14.5 | 0.00 | 0.00 | 0.00 | 61 | 1013.5 |
| 20260503170704 | 19 | 34 | 3.2 | 12.9 | 0.00 | 0.00 | 0.00 | 64 | 1013.6 |
| 20260503170204 | 19 | 358 | 3.2 | 11.3 | 0.00 | 0.00 | 0.00 | 64 | 1013.7 |
| 20260503150704 | 15 | 338 | 0.0 | 0.0 | 0.00 | 0.00 | 0.00 | 79 | 1013.9 |
| 20260503150204 | 15 | 338 | 0.0 | 0.0 | 0.00 | 0.00 | 0.00 | 79 | 1014.0 |
| 20260503140204 | 13 | 77 | 0.0 | 0.0 | 0.00 | 0.00 | 0.00 | 83 | 1013.7 |
| 20260503130704 | 12 | 77 | 0.0 | 0.0 | 0.00 | 0.00 | 0.00 | 85 | 1013.8 |
| 20260503130204 | 12 | 77 | 0.0 | 0.0 | 0.00 | 0.00 | 0.00 | 84 | 1013.7 |
| 20260503120204 | 13 | 76 | 0.0 | 0.0 | 0.00 | 0.00 | 0.00 | 83 | 1013.8 |
| 20260503110704 | 13 | 81 | 0.0 | 0.0 | 0.00 | 0.00 | 0.00 | 80 | 1013.9 |
| 20260503110204 | 13 | 81 | 0.0 | 0.0 | 0.00 | 0.00 | 0.00 | 80 | 1013.9 |
| 20260503100204 | 15 | 118 | 0.0 | 4.8 | 0.00 | 0.00 | 0.00 | 75 | 1014.0 |
| 20260503090204 | 15 | 60 | 0.0 | 3.2 | 0.00 | 0.00 | 0.00 | 70 | 1014.2 |
| 20260503080703 | 16 | 57 | 1.6 | 3.2 | 0.00 | 0.00 | 0.00 | 67 | 1014.2 |
| 20260503080204 | 16 | 57 | 1.6 | 3.2 | 0.00 | 0.00 | 0.00 | 66 | 1014.1 |
| 20260503070704 | 17 | 57 | 1.6 | 4.8 | 0.00 | 0.00 | 0.00 | 61 | 1014.1 |
| 20260503070204 | 17 | 60 | 1.6 | 4.8 | 0.00 | 0.00 | 0.00 | 62 | 1014.1 |
| 20260503060204 | 18 | 89 | 0.0 | 8.0 | 0.00 | 0.00 | 0.00 | 57 | 1014.0 |
| 20260503053704 | 18 | 29 | 1.6 | 4.8 | 0.00 | 0.00 | 0.00 | 58 | 1013.8 |
| 20260503050704 | 19 | 38 | 1.6 | 4.8 | 0.00 | 0.00 | 0.00 | 53 | 1013.8 |
| 20260503043704 | 20 | 32 | 4.8 | 11.3 | 0.00 | 0.00 | 0.00 | 50 | 1013.6 |
| 20260503043204 | 20 | 27 | 4.8 | 14.5 | 0.00 | 0.00 | 0.00 | 50 | 1013.5 |
| 20260503040204 | 20 | 24 | 4.8 | 12.9 | 0.00 | 0.00 | 0.00 | 53 | 1013.4 |
| 20260503033704 | 20 | 30 | 1.6 | 4.8 | 0.00 | 0.00 | 0.00 | 59 | 1012.9 |
| 20260503033204 | 21 | 34 | 1.6 | 11.3 | 0.00 | 0.00 | 0.00 | 58 | 1012.9 |
| 20260503023704 | 23 | 0 | 3.2 | 9.7 | 0.00 | 0.00 | 0.00 | 54 | 1012.2 |
| 20260503020205 | 24 | 312 | 6.4 | 14.5 | 0.00 | 0.00 | 0.00 | 51 | 1012.3 |
| 20260503013704 | 25 | 324 | 4.8 | 19.3 | 0.00 | 0.00 | 0.00 | 49 | 1012.4 |
| 20260503010704 | 25 | 311 | 1.6 | 4.8 | 0.00 | 0.00 | 0.00 | 47 | 1012.5 |
| 20260503003203 | 25 | 8 | 3.2 | 19.3 | 0.00 | 0.00 | 0.00 | 48 | 1012.6 |
| 20260503000204 | 26 | 343 | 4.8 | 19.3 | 0.00 | 0.00 | 0.00 | 46 | 1012.7 |
| 20260502233204 | 25 | 293 | 9.7 | 22.5 | 0.00 | 0.00 | 0.00 | 48 | 1013.1 |
| 20260502230704 | 24 | 327 | 8.0 | 19.3 | 0.00 | 0.00 | 0.00 | 50 | 1013.4 |
| 20260502230204 | 24 | 254 | 9.7 | 22.5 | 0.00 | 0.00 | 0.00 | 49 | 1013.5 |
| 20260502223704 | 24 | 289 | 8.0 | 19.3 | 0.00 | 0.00 | 0.00 | 51 | 1013.8 |
| 20260502223204 | 25 | 292 | 4.8 | 22.5 | 0.00 | 0.00 | 0.00 | 51 | 1013.9 |
| 20260502220704 | 24 | 349 | 3.2 | 16.1 | 0.00 | 0.00 | 0.00 | 56 | 1014.1 |
| 20260502220205 | 24 | 298 | 4.8 | 20.9 | 0.00 | 0.00 | 0.00 | 54 | 1014.2 |
| 20260502213204 | 23 | 276 | 6.4 | 20.9 | 0.00 | 0.00 | 0.00 | 55 | 1014.5 |
| 20260502210704 | 22 | 294 | 8.0 | 19.3 | 0.00 | 0.00 | 0.00 | 58 | 1014.7 |
| 20260502210204 | 22 | 303 | 8.0 | 19.3 | 0.00 | 0.00 | 0.00 | 56 | 1014.8 |